Regional Weather Roundup
Issued by NWS

Home | Current Version | Previous Version | Text Only | Print | Product List | Glossary On
Versions: 1 2 3 4 5 6 7 8 9 10 11 12 13 14 15 16 17 18 19 20 21 22 23 24 25 26 27 28 29 30 31 32 33 34 35 36 37 38 39 40 41 42 43 44 45 46 47 48 49 50
000
ASUS43 KFSD 172310
RWRSD

WEATHER ROUNDUP FOR SOUTH DAKOTA
NATIONAL WEATHER SERVICE SIOUX FALLS SD
500 PM CST SUN DEC 17 2017

NOTE: "FAIR" INDICATES FEW OR NO CLOUDS BELOW 12,000 FEET WITH NO
SIGNIFICANT WEATHER AND/OR OBSTRUCTIONS TO VISIBILITY.


SDZ001>005-009-010-012>017-180000-
NORTHWEST AND NORTH CENTRAL SOUTH DAKOTA

CITY           SKY/WX    TMP DP  RH WIND       PRES   REMARKS
BUFFALO          N/A     37  24  59 W12       29.72F
FAITH            N/A     34  25  69 S9        29.81F WCI  27
MOBRIDGE       CLEAR     35  26  69 S7        29.83R WCI  29
$$

SDZ012>016-024>037-041>051-057-063-072>074-180000-
SOUTHWEST AND SOUTH CENTRAL SOUTH DAKOTA

CITY           SKY/WX    TMP DP  RH WIND       PRES   REMARKS
RAPID CTY ARPT CLEAR     38  24  57 NW9       29.81R
PIERRE         CLOUDY    39  30  70 S8        29.87F
CUSTER         CLEAR     28  19  69 W16G24    29.77S WCI  16
ELLSWORTH AFB  CLEAR     39  24  55 N10       29.80R
PHILIP         CLEAR     38  28  67 S6        29.84S
PINE RIDGE     CLEAR     40  27  59 SW3       29.83S
SPEARFISH      FAIR      34  21  60 SW12      29.81S WCI  25
WINNER         CLOUDY    41  30  65 S9        29.91S
$$

SDZ004>011-016>023-039-040-180000-
NORTHEAST SOUTH DAKOTA

CITY           SKY/WX    TMP DP  RH WIND       PRES   REMARKS
ABERDEEN       CLOUDY    33  28  81 S5        29.90F WCI  29
WATERTOWN      CLOUDY    33  31  92 SW3       29.90S
BROOKINGS      CLOUDY    36  29  75 SW3       29.92F
SISSETON         N/A     33  31  92 SE5       29.91S WCI  29
$$

SDZ017-020-022-023-036>040-048>070-180000-
SOUTHEAST SOUTH DAKOTA

CITY           SKY/WX    TMP DP  RH WIND       PRES   REMARKS
SIOUX FALLS    PTCLDY    34  28  79 CALM      29.94S
HURON          CLOUDY    39  31  72 MISG      29.91F
CHAMBERLAIN    CLOUDY    40  33  77 S6        29.91S
MITCHELL       CLOUDY    40  29  64 S3        29.94F
YANKTON        CLOUDY    36  28  73 W6        29.96
$$

ABBREVIATIONS USED IN REMARKS
   TC - TEMPERATURE IN CELSIUS
  WCI - WIND CHILL INDEX
   HX - HEAT INDEX
  VSB - VISIBILITY





USA.gov is the U.S. government's official web portal to all federal, state and local government web resources and services.